TimePDT,TemperatureF,Dew PointF,Humidity,Sea Level PressureIn,VisibilityMPH,Wind Direction,Wind SpeedMPH,Gust SpeedMPH,PrecipitationIn,Events,Conditions,WindDirDegrees,DateUTC
12:56 AM,64.0,53.1,67,29.83,10.0,South,4.6,-,N/A,,Clear,170,2013-07-28 07:56:00
1:56 AM,62.1,52.0,70,29.82,10.0,South,4.6,-,N/A,,Clear,170,2013-07-28 08:56:00
2:56 AM,59.0,51.1,75,29.82,10.0,SSE,4.6,-,N/A,,Clear,160,2013-07-28 09:56:00
3:56 AM,57.0,51.1,81,29.81,10.0,Calm,Calm,-,N/A,,Clear,0,2013-07-28 10:56:00
4:56 AM,55.9,50.0,80,29.81,10.0,Calm,Calm,-,N/A,,Clear,0,2013-07-28 11:56:00
5:56 AM,54.0,50.0,86,29.81,10.0,SSE,3.5,-,N/A,,Clear,160,2013-07-28 12:56:00
6:56 AM,53.1,50.0,89,29.82,10.0,South,4.6,-,N/A,,Clear,170,2013-07-28 13:56:00
7:56 AM,55.9,51.1,84,29.83,10.0,SSE,4.6,-,N/A,,Clear,150,2013-07-28 14:56:00
8:56 AM,60.1,52.0,75,29.83,10.0,SE,5.8,-,N/A,,Clear,130,2013-07-28 15:56:00
9:56 AM,68.0,53.1,59,29.81,10.0,ESE,4.6,-,N/A,,Clear,110,2013-07-28 16:56:00
10:56 AM,73.0,53.1,49,29.81,10.0,Variable,4.6,-,N/A,,Clear,0,2013-07-28 17:56:00
11:56 AM,81.0,54.0,39,29.79,10.0,ESE,6.9,-,N/A,,Clear,120,2013-07-28 18:56:00
12:56 PM,86.0,53.1,32,29.77,10.0,SE,10.4,-,N/A,,Clear,130,2013-07-28 19:56:00
1:56 PM,90.0,52.0,27,29.75,10.0,SE,9.2,-,N/A,,Clear,140,2013-07-28 20:56:00
2:56 PM,93.0,52.0,25,29.73,10.0,SSE,8.1,-,N/A,,Clear,150,2013-07-28 21:56:00
3:56 PM,93.0,53.1,26,29.71,10.0,SE,8.1,-,N/A,,Clear,140,2013-07-28 22:56:00
4:56 PM,93.0,55.0,28,29.70,10.0,SE,11.5,-,N/A,,Clear,140,2013-07-28 23:56:00
5:56 PM,91.9,45.0,20,29.71,6.0,WSW,9.2,-,N/A,,Haze,250,2013-07-29 00:56:00
6:56 PM,86.0,55.9,36,29.71,9.0,East,8.1,-,N/A,,Clear,90,2013-07-29 01:56:00
7:56 PM,80.1,53.1,39,29.73,10.0,South,3.5,-,N/A,,Clear,170,2013-07-29 02:56:00
8:56 PM,73.9,52.0,46,29.75,10.0,SSE,5.8,-,N/A,,Clear,150,2013-07-29 03:56:00
9:56 PM,68.0,51.1,55,29.77,10.0,South,8.1,-,N/A,,Clear,170,2013-07-29 04:56:00
10:56 PM,64.0,51.1,63,29.78,10.0,SSE,5.8,-,N/A,,Clear,160,2013-07-29 05:56:00
11:56 PM,61.0,50.0,67,29.78,10.0,South,5.8,-,N/A,,Clear,170,2013-07-29 06:56:00